Time,TemperatureF,DewpointF,PressureIn,WindDirection,WindDirectionDegrees,WindSpeedMPH,WindSpeedGustMPH,Humidity,HourlyPrecipIn,Conditions,Clouds,dailyrainin,SoftwareType,DateUTC
2013-01-24 00:02:00,33.0,33.0,-100.00,South,181,5.0,9.0,100,0.00,,,-99.99,,2013-01-24 08:02:00,
2013-01-24 00:12:00,33.0,33.0,-100.00,SSE,147,2.0,4.0,100,0.00,,,-99.99,,2013-01-24 08:12:00,
2013-01-24 00:22:00,32.0,32.0,-100.00,SSE,167,2.0,4.0,100,0.00,,,-99.99,,2013-01-24 08:22:00,
2013-01-24 00:32:00,32.0,32.0,-100.00,SSE,167,2.0,4.0,100,0.00,,,-99.99,,2013-01-24 08:32:00,
2013-01-24 00:42:00,32.0,32.0,-100.00,SSE,167,2.0,4.0,100,0.00,,,-99.99,,2013-01-24 08:42:00,
2013-01-24 00:53:00,31.0,31.0,-100.00,South,182,3.0,6.0,100,0.00,,,-99.99,,2013-01-24 08:53:00,
2013-01-24 01:02:00,31.0,31.0,-100.00,South,182,3.0,6.0,100,0.00,,,-99.99,,2013-01-24 09:02:00,
2013-01-24 01:12:00,31.0,31.0,-100.00,South,172,3.0,5.0,100,0.00,,,-99.99,,2013-01-24 09:12:00,
2013-01-24 01:22:00,31.0,31.0,-100.00,South,185,2.0,4.0,100,0.00,,,-99.99,,2013-01-24 09:22:00,
2013-01-24 01:32:00,31.0,31.0,-100.00,South,185,2.0,4.0,100,0.00,,,-99.99,,2013-01-24 09:32:00,
2013-01-24 01:42:00,31.0,31.0,-100.00,South,178,5.0,8.0,100,0.00,,,-99.99,,2013-01-24 09:42:00,
2013-01-24 01:53:00,31.0,31.0,-100.00,South,178,5.0,8.0,100,0.00,,,-99.99,,2013-01-24 09:53:00,
2013-01-24 02:02:00,31.0,31.0,-100.00,South,178,5.0,8.0,100,0.00,,,-99.99,,2013-01-24 10:02:00,
2013-01-24 02:12:00,30.0,30.0,-100.00,SSW,195,4.0,8.0,100,0.00,,,-99.99,,2013-01-24 10:12:00,
2013-01-24 02:22:00,30.0,30.0,-100.00,SSW,198,3.0,6.0,100,0.00,,,-99.99,,2013-01-24 10:22:00,
2013-01-24 02:32:00,30.0,30.0,-100.00,SSW,198,3.0,6.0,100,0.00,,,-99.99,,2013-01-24 10:32:00,
2013-01-24 02:42:00,29.0,29.0,-100.00,South,175,3.0,6.0,100,0.00,,,-99.99,,2013-01-24 10:42:00,
2013-01-24 02:53:00,29.0,29.0,-100.00,SE,145,1.0,3.0,100,0.00,,,-99.99,,2013-01-24 10:53:00,
2013-01-24 03:02:00,29.0,29.0,-100.00,SE,145,1.0,3.0,100,0.00,,,-99.99,,2013-01-24 11:02:00,
2013-01-24 03:12:00,29.0,29.0,-100.00,SE,145,1.0,3.0,100,0.00,,,-99.99,,2013-01-24 11:12:00,
2013-01-24 03:22:00,27.0,27.0,-100.00,SSE,158,3.0,5.0,100,0.00,,,-99.99,,2013-01-24 11:22:00,
2013-01-24 03:32:00,27.0,27.0,-100.00,SSE,158,3.0,5.0,100,0.00,,,-99.99,,2013-01-24 11:32:00,
2013-01-24 03:43:00,27.0,27.0,-100.00,South,188,3.0,5.0,100,0.00,,,-99.99,,2013-01-24 11:43:00,
2013-01-24 03:53:00,27.0,27.0,-100.00,SW,220,2.0,3.0,100,0.00,,,-99.99,,2013-01-24 11:53:00,
2013-01-24 04:02:00,27.0,27.0,-100.00,SW,220,2.0,3.0,100,0.00,,,-99.99,,2013-01-24 12:02:00,
2013-01-24 04:12:00,27.0,27.0,-100.00,SW,220,2.0,3.0,100,0.00,,,-99.99,,2013-01-24 12:12:00,
2013-01-24 04:22:00,26.0,26.0,-100.00,SSE,168,1.0,2.0,100,0.00,,,-99.99,,2013-01-24 12:22:00,
2013-01-24 04:32:00,26.0,26.0,-100.00,SSE,168,1.0,2.0,100,0.00,,,-99.99,,2013-01-24 12:32:00,
2013-01-24 04:42:00,27.0,27.0,-100.00,SSE,160,2.0,7.0,100,0.00,,,-99.99,,2013-01-24 12:42:00,
2013-01-24 04:53:00,27.0,27.0,-100.00,South,191,2.0,3.0,100,0.00,,,-99.99,,2013-01-24 12:53:00,
2013-01-24 05:02:00,27.0,27.0,-100.00,South,191,2.0,3.0,100,0.00,,,-99.99,,2013-01-24 13:02:00,
2013-01-24 05:12:00,27.0,27.0,-100.00,South,191,2.0,3.0,100,0.00,,,-99.99,,2013-01-24 13:12:00,
2013-01-24 05:22:00,27.0,27.0,-100.00,South,179,4.0,6.0,100,0.00,,,-99.99,,2013-01-24 13:22:00,
2013-01-24 05:32:00,27.0,27.0,-100.00,South,179,4.0,6.0,100,0.00,,,-99.99,,2013-01-24 13:32:00,
2013-01-24 05:42:00,26.0,26.0,-100.00,WSW,257,1.0,2.0,100,0.00,,,-99.99,,2013-01-24 13:42:00,
2013-01-24 05:53:00,27.0,27.0,-100.00,SSE,161,3.0,7.0,100,0.00,,,-99.99,,2013-01-24 13:53:00,
2013-01-24 06:02:00,27.0,27.0,-100.00,SSE,161,3.0,7.0,100,0.00,,,-99.99,,2013-01-24 14:02:00,
2013-01-24 06:12:00,28.0,28.0,-100.00,SSE,164,4.0,6.0,100,0.00,,,-99.99,,2013-01-24 14:12:00,
2013-01-24 06:22:00,28.0,28.0,-100.00,SSE,164,4.0,6.0,100,0.00,,,-99.99,,2013-01-24 14:22:00,
2013-01-24 06:32:00,28.0,28.0,-100.00,SSE,164,4.0,6.0,100,0.00,,,-99.99,,2013-01-24 14:32:00,
2013-01-24 06:43:00,28.0,28.0,-100.00,South,175,3.0,7.0,100,0.00,,,-99.99,,2013-01-24 14:43:00,
2013-01-24 06:54:00,28.0,28.0,-100.00,SSE,160,2.0,5.0,100,0.00,,,-99.99,,2013-01-24 14:54:00,
2013-01-24 07:03:00,28.0,28.0,-100.00,SSE,160,2.0,5.0,100,0.00,,,-99.99,,2013-01-24 15:03:00,
2013-01-24 07:12:00,28.0,28.0,-100.00,SSE,152,3.0,7.0,100,0.00,,,-99.99,,2013-01-24 15:12:00,
2013-01-24 07:22:00,28.0,28.0,-100.00,SSE,152,3.0,7.0,100,0.00,,,-99.99,,2013-01-24 15:22:00,
2013-01-24 07:32:00,28.0,28.0,-100.00,SSE,152,3.0,7.0,100,0.00,,,-99.99,,2013-01-24 15:32:00,
2013-01-24 07:42:00,28.0,28.0,-100.00,SSE,162,1.0,2.0,100,0.00,,,-99.99,,2013-01-24 15:42:00,
2013-01-24 07:53:00,28.0,28.0,-100.00,East,90,1.0,2.0,100,0.00,,,-99.99,,2013-01-24 15:53:00,
2013-01-24 08:00:00,28.0,28.0,-100.00,NNW,333,1.0,3.0,100,0.00,,,-99.99,,2013-01-24 16:00:00,
2013-01-24 08:03:00,28.0,28.0,-100.00,East,90,1.0,2.0,100,0.00,,,-99.99,,2013-01-24 16:03:00,
2013-01-24 08:12:00,28.0,28.0,-100.00,NE,52,1.0,4.0,100,0.00,,,-99.99,,2013-01-24 16:12:00,
2013-01-24 08:22:00,28.0,28.0,-100.00,NNW,333,1.0,3.0,100,0.00,,,-99.99,,2013-01-24 16:22:00,
2013-01-24 08:33:00,28.0,28.0,-100.00,NNW,333,1.0,3.0,100,0.00,,,-99.99,,2013-01-24 16:33:00,
2013-01-24 08:42:00,28.0,28.0,-100.00,NNW,333,1.0,3.0,100,0.00,,,-99.99,,2013-01-24 16:42:00,
2013-01-24 09:12:00,27.0,27.0,-100.00,North,357,0.0,2.0,100,0.00,,,-99.99,,2013-01-24 17:12:00,
2013-01-24 09:21:00,27.0,27.0,-100.00,North,357,0.0,2.0,100,0.00,,,-99.99,,2013-01-24 17:21:00,
2013-01-24 09:32:00,27.0,27.0,-100.00,NW,315,2.0,2.0,100,0.00,,,-99.99,,2013-01-24 17:32:00,
2013-01-24 09:42:00,27.0,27.0,-100.00,NW,315,2.0,2.0,100,0.00,,,-99.99,,2013-01-24 17:42:00,
2013-01-24 09:52:00,28.0,28.0,-100.00,NW,319,1.0,2.0,100,0.00,,,-99.99,,2013-01-24 17:52:00,
2013-01-24 10:01:00,28.0,28.0,-100.00,NW,319,1.0,2.0,100,0.00,,,-99.99,,2013-01-24 18:01:00,
2013-01-24 10:12:00,28.0,28.0,-100.00,North,1,1.0,2.0,100,0.00,,,-99.99,,2013-01-24 18:12:00,
2013-01-24 10:22:00,29.0,29.0,-100.00,NNE,16,0.0,2.0,100,0.00,,,-99.99,,2013-01-24 18:22:00,
2013-01-24 10:30:00,29.0,29.0,-100.00,NE,45,1.0,2.0,100,0.00,,,-99.99,,2013-01-24 18:30:00,
2013-01-24 10:32:00,29.0,29.0,-100.00,NNE,16,0.0,2.0,100,0.00,,,-99.99,,2013-01-24 18:32:00,
2013-01-24 10:43:00,29.0,29.0,-100.00,NNW,346,1.0,2.0,100,0.00,,,-99.99,,2013-01-24 18:43:00,
2013-01-24 10:53:00,29.0,29.0,-100.00,NNW,346,1.0,2.0,100,0.00,,,-99.99,,2013-01-24 18:53:00,
2013-01-24 11:01:00,29.0,29.0,-100.00,NNW,346,1.0,2.0,100,0.00,,,-99.99,,2013-01-24 19:01:00,
2013-01-24 11:12:00,29.0,29.0,-100.00,NE,45,1.0,2.0,100,0.00,,,-99.99,,2013-01-24 19:12:00,
2013-01-24 11:21:00,29.0,29.0,-100.00,NE,45,1.0,2.0,100,0.00,,,-99.99,,2013-01-24 19:21:00,
2013-01-24 11:42:00,32.0,32.0,-100.00,SE,133,1.0,2.0,100,0.00,,,-99.99,,2013-01-24 19:42:00,
2013-01-24 11:52:00,32.0,32.0,-100.00,SE,133,1.0,2.0,100,0.00,,,-99.99,,2013-01-24 19:52:00,
2013-01-24 12:01:00,32.0,32.0,-100.00,SE,133,1.0,2.0,100,0.00,,,-99.99,,2013-01-24 20:01:00,
2013-01-24 12:11:00,32.0,32.0,-100.00,SE,124,2.0,3.0,100,0.00,,,-99.99,,2013-01-24 20:11:00,
2013-01-24 12:22:00,33.0,33.0,-100.00,South,176,4.0,7.0,100,0.00,,,-99.99,,2013-01-24 20:22:00,
2013-01-24 12:32:00,33.0,33.0,-100.00,South,176,4.0,7.0,100,0.00,,,-99.99,,2013-01-24 20:32:00,
2013-01-24 12:42:00,33.0,33.0,-100.00,South,174,2.0,4.0,100,0.00,,,-99.99,,2013-01-24 20:42:00,
2013-01-24 12:52:00,33.0,33.0,-100.00,SSE,158,2.0,4.0,100,0.00,,,-99.99,,2013-01-24 20:52:00,
2013-01-24 13:02:00,33.0,33.0,-100.00,SSE,158,2.0,4.0,100,0.00,,,-99.99,,2013-01-24 21:02:00,
2013-01-24 13:11:00,33.0,33.0,-100.00,SSE,158,2.0,4.0,100,0.00,,,-99.99,,2013-01-24 21:11:00,
2013-01-24 13:22:00,34.0,34.0,-100.00,SSE,147,2.0,4.0,100,0.00,,,-99.99,,2013-01-24 21:22:00,
2013-01-24 13:32:00,34.0,34.0,-100.00,SSE,147,2.0,4.0,100,0.00,,,-99.99,,2013-01-24 21:32:00,
2013-01-24 13:42:00,35.0,35.0,-100.00,East,97,2.0,4.0,100,0.00,,,-99.99,,2013-01-24 21:42:00,
2013-01-24 13:53:00,35.0,35.0,-100.00,East,97,2.0,4.0,100,0.00,,,-99.99,,2013-01-24 21:53:00,
2013-01-24 14:02:00,34.0,34.0,-100.00,East,89,2.0,3.0,100,0.00,,,-99.99,,2013-01-24 22:02:00,
2013-01-24 14:12:00,34.0,34.0,-100.00,East,85,2.0,3.0,100,0.00,,,-99.99,,2013-01-24 22:12:00,
2013-01-24 14:22:00,34.0,34.0,-100.00,East,85,2.0,3.0,100,0.00,,,-99.99,,2013-01-24 22:22:00,
2013-01-24 14:32:00,34.0,34.0,-100.00,East,85,2.0,3.0,100,0.00,,,-99.99,,2013-01-24 22:32:00,
2013-01-24 14:42:00,34.0,34.0,-100.00,NNE,14,1.0,2.0,100,0.00,,,-99.99,,2013-01-24 22:42:00,
2013-01-24 14:53:00,34.0,34.0,-100.00,East,79,1.0,2.0,100,0.00,,,-99.99,,2013-01-24 22:53:00,
2013-01-24 15:02:00,34.0,34.0,-100.00,East,79,1.0,2.0,100,0.00,,,-99.99,,2013-01-24 23:02:00,
2013-01-24 15:11:00,34.0,34.0,-100.00,NNW,347,2.0,4.0,100,0.00,,,-99.99,,2013-01-24 23:11:00,
2013-01-24 15:21:00,34.0,34.0,-100.00,NNW,347,2.0,4.0,100,0.00,,,-99.99,,2013-01-24 23:21:00,
2013-01-24 15:32:00,34.0,34.0,-100.00,NNW,347,2.0,4.0,100,0.00,,,-99.99,,2013-01-24 23:32:00,
2013-01-24 15:42:00,33.0,33.0,-100.00,North,4,1.0,3.0,100,0.00,,,-99.99,,2013-01-24 23:42:00,
2013-01-24 15:52:00,32.0,32.0,-100.00,North,350,2.0,3.0,100,0.00,,,-99.99,,2013-01-24 23:52:00,
2013-01-24 16:02:00,32.0,32.0,-100.00,North,350,2.0,3.0,100,0.00,,,-99.99,,2013-01-25 00:02:00,
2013-01-24 16:12:00,32.0,32.0,-100.00,NNE,14,2.0,3.0,100,0.00,,,-99.99,,2013-01-25 00:12:00,
2013-01-24 16:22:00,32.0,32.0,-100.00,NE,49,1.0,2.0,100,0.00,,,-99.99,,2013-01-25 00:22:00,
2013-01-24 16:32:00,32.0,32.0,-100.00,NE,49,1.0,2.0,100,0.00,,,-99.99,,2013-01-25 00:32:00,
2013-01-24 16:41:00,32.0,32.0,-100.00,NE,41,2.0,3.0,100,0.00,,,-99.99,,2013-01-25 00:41:00,
2013-01-24 16:52:00,32.0,32.0,-100.00,NE,49,2.0,4.0,100,0.00,,,-99.99,,2013-01-25 00:52:00,
2013-01-24 17:01:00,32.0,32.0,-100.00,NE,49,2.0,4.0,100,0.00,,,-99.99,,2013-01-25 01:01:00,
2013-01-24 17:11:00,32.0,32.0,-100.00,NNE,17,1.0,2.0,100,0.00,,,-99.99,,2013-01-25 01:11:00,
2013-01-24 17:21:00,31.0,31.0,-100.00,NNW,344,2.0,5.0,100,0.00,,,-99.99,,2013-01-25 01:21:00,
2013-01-24 17:31:00,31.0,31.0,-100.00,NNW,344,2.0,5.0,100,0.00,,,-99.99,,2013-01-25 01:31:00,
2013-01-24 17:41:00,31.0,31.0,-100.00,NW,323,2.0,4.0,100,0.00,,,-99.99,,2013-01-25 01:41:00,
2013-01-24 17:52:00,31.0,31.0,-100.00,NW,323,2.0,4.0,100,0.00,,,-99.99,,2013-01-25 01:52:00,
2013-01-24 18:01:00,31.0,31.0,-100.00,NW,323,2.0,4.0,100,0.00,,,-99.99,,2013-01-25 02:01:00,
2013-01-24 18:12:00,31.0,-99.9,-100.00,WNW,301,1.0,1.0,-999,0.00,,,-99.99,,2013-01-25 02:12:00,
2013-01-24 18:22:00,31.0,31.0,-100.00,North,10,0.0,1.0,100,0.00,,,-99.99,,2013-01-25 02:22:00,
2013-01-24 18:32:00,31.0,31.0,-100.00,North,10,0.0,1.0,100,0.00,,,-99.99,,2013-01-25 02:32:00,
2013-01-24 18:43:00,31.0,-99.9,-100.00,NW,313,2.0,3.0,-999,0.00,,,-99.99,,2013-01-25 02:43:00,
2013-01-24 18:53:00,31.0,-99.9,-100.00,NW,313,2.0,3.0,-999,0.00,,,-99.99,,2013-01-25 02:53:00,
2013-01-24 19:02:00,31.0,-99.9,-100.00,NW,313,2.0,3.0,-999,0.00,,,-99.99,,2013-01-25 03:02:00,
2013-01-24 19:12:00,31.0,31.0,-100.00,NW,326,0.0,1.0,100,0.00,,,-99.99,,2013-01-25 03:12:00,
2013-01-24 19:22:00,31.0,-99.9,-100.00,NNW,333,1.0,3.0,-999,0.00,,,-99.99,,2013-01-25 03:22:00,
2013-01-24 19:33:00,31.0,-99.9,-100.00,NNW,333,1.0,3.0,-999,0.00,,,-99.99,,2013-01-25 03:33:00,
2013-01-24 19:42:00,31.0,-99.9,-100.00,East,85,0.0,0.0,-999,0.00,,,-99.99,,2013-01-25 03:42:00,
2013-01-24 19:53:00,31.0,-99.9,-100.00,North,10,0.0,2.0,-999,0.00,,,-99.99,,2013-01-25 03:53:00,
2013-01-24 20:02:00,31.0,-99.9,-100.00,North,10,0.0,2.0,-999,0.00,,,-99.99,,2013-01-25 04:02:00,
2013-01-24 20:12:00,31.0,-99.9,-100.00,North,10,0.0,2.0,-999,0.00,,,-99.99,,2013-01-25 04:12:00,
2013-01-24 20:23:00,31.0,-99.9,-100.00,NNW,333,1.0,2.0,-999,0.00,,,-99.99,,2013-01-25 04:23:00,
2013-01-24 20:32:00,31.0,-99.9,-100.00,NNW,333,1.0,2.0,-999,0.00,,,-99.99,,2013-01-25 04:32:00,
2013-01-24 20:42:00,31.0,-99.9,-100.00,NW,313,1.0,2.0,-999,0.00,,,-99.99,,2013-01-25 04:42:00,
2013-01-24 20:52:00,31.0,-99.9,-100.00,SSW,202,0.0,1.0,-999,0.00,,,-99.99,,2013-01-25 04:52:00,
2013-01-24 21:04:00,31.0,-99.9,-100.00,SSW,202,0.0,1.0,-999,0.00,,,-99.99,,2013-01-25 05:04:00,
2013-01-24 21:12:00,31.0,-99.9,-100.00,SSW,202,0.0,1.0,-999,0.00,,,-99.99,,2013-01-25 05:12:00,
2013-01-24 21:22:00,30.0,-99.9,-100.00,ESE,107,0.0,0.0,-999,0.00,,,-99.99,,2013-01-25 05:22:00,
2013-01-24 21:32:00,30.0,-99.9,-100.00,ESE,107,0.0,0.0,-999,0.00,,,-99.99,,2013-01-25 05:32:00,
2013-01-24 21:43:00,30.0,-99.9,-100.00,NNE,25,1.0,3.0,-999,0.00,,,-99.99,,2013-01-25 05:43:00,
2013-01-24 21:52:00,30.0,-99.9,-100.00,NNE,20,0.0,1.0,-999,0.00,,,-99.99,,2013-01-25 05:52:00,
2013-01-24 22:02:00,30.0,-99.9,-100.00,NNE,20,0.0,1.0,-999,0.00,,,-99.99,,2013-01-25 06:02:00,
2013-01-24 22:12:00,30.0,-99.9,-100.00,NNW,339,2.0,4.0,-999,0.00,,,-99.99,,2013-01-25 06:12:00,
2013-01-24 22:22:00,30.0,-99.9,-100.00,NNW,339,2.0,4.0,-999,0.00,,,-99.99,,2013-01-25 06:22:00,
2013-01-24 22:32:00,30.0,-99.9,-100.00,NNW,339,2.0,4.0,-999,0.00,,,-99.99,,2013-01-25 06:32:00,
2013-01-24 22:42:00,31.0,-99.9,-100.00,NNW,330,1.0,3.0,-999,0.00,,,-99.99,,2013-01-25 06:42:00,
2013-01-24 22:52:00,31.0,-99.9,-100.00,East,86,0.0,1.0,-999,0.08,,,-99.99,,2013-01-25 06:52:00,
2013-01-24 23:02:00,31.0,-99.9,-100.00,East,86,0.0,1.0,-999,0.08,,,-99.99,,2013-01-25 07:02:00,
2013-01-24 23:11:00,31.0,-99.9,-100.00,NNW,343,0.0,0.0,-999,0.04,,,-99.99,,2013-01-25 07:11:00,
2013-01-24 23:22:00,31.0,-99.9,-100.00,NNW,343,0.0,0.0,-999,0.04,,,-99.99,,2013-01-25 07:22:00,
2013-01-24 23:32:00,31.0,-99.9,-100.00,NNW,343,0.0,0.0,-999,0.04,,,-99.99,,2013-01-25 07:32:00,
2013-01-24 23:42:00,31.0,-99.9,-100.00,SE,144,1.0,2.0,-999,0.00,,,-99.99,,2013-01-25 07:42:00,
2013-01-24 23:52:00,31.0,-99.9,-100.00,NW,323,1.0,2.0,-999,0.00,,,-99.99,,2013-01-25 07:52:00,